Accueil
METAR-TAF:

METAR-TAF

Aéroports :

Monte Cimone, Italie

latitude: 44-12N, longitude: 010-42E, altitude: 2165 m

Observation

Le bulletin a été fait il y a 17 heures et 51 minutes, à 11:55 UTC
Vent 18 kt de sud/sud-ouest avec des rafales jusqu'à 32 kt
Température 2°C
Humidité 93%
Pression 1016 hPa
Visibilité inférieure à 50 m
brouillard

METAR: LIVC 241155Z 21018G32KT 0000 FG VV/// 02/01 Q1016 RMK MON INVIS VAL INVIS VIS MIN 0000

Heure: 07:46 (05:46 UTC)


TAF: absent

Observations et prévisions météorologiques de plus de 4000 aéroports (messages METAR et TAF).

Les stations disponibles sont représentées par des disques jaunes et rouges sur la carte.

Passer la souris dessus pour voir le nom de la station.

Cliquer dessus pour voir les observations et prévisions météorologiques.

Pour changer de carte: cliquez sur les boutons verts avec une croix noire pour zoomer, sur le bouton vert avec un tiret pour effectuer un zoom arrière, ou sur les flèches vertes pour les cartes adjacentes.


METAR-TAF: